Time,TemperatureF,DewpointF,PressureIn,WindDirection,WindDirectionDegrees,WindSpeedMPH,WindSpeedGustMPH,Humidity,HourlyPrecipIn,Conditions,Clouds,dailyrainin,SoftwareType,DateUTC
2013-06-24 00:02:00,77.0,74.0,30.15,SE,127,0.0,2.0,89,0.00,,,0.00,,2013-06-24 04:02:00,
2013-06-24 00:12:00,77.0,74.0,30.15,SE,127,0.0,2.0,89,0.00,,,0.00,,2013-06-24 04:12:00,
2013-06-24 00:22:00,77.0,74.0,30.15,SE,127,0.0,2.0,89,0.00,,,0.00,,2013-06-24 04:22:00,
2013-06-24 00:33:00,77.0,74.0,30.15,SE,127,0.0,2.0,89,0.00,,,0.00,,2013-06-24 04:33:00,
2013-06-24 00:43:00,76.0,73.0,30.14,SW,232,0.0,2.0,91,0.00,,,0.00,,2013-06-24 04:43:00,
2013-06-24 00:53:00,76.0,73.0,30.14,SSW,213,0.0,3.0,91,0.00,,,0.00,,2013-06-24 04:53:00,
2013-06-24 01:02:00,76.0,74.0,30.14,South,181,0.0,1.0,92,0.00,,,0.00,,2013-06-24 05:02:00,
2013-06-24 01:12:00,76.0,74.0,30.14,South,181,0.0,1.0,92,0.00,,,0.00,,2013-06-24 05:12:00,
2013-06-24 01:22:00,76.0,73.0,30.14,South,186,0.0,1.0,91,0.00,,,0.00,,2013-06-24 05:22:00,
2013-06-24 01:46:00,75.0,73.0,30.14,SW,223,0.0,2.0,92,0.00,,,0.00,,2013-06-24 05:46:00,
2013-06-24 01:57:00,75.0,73.0,30.14,SW,222,0.0,2.0,92,0.00,,,0.00,,2013-06-24 05:57:00,
2013-06-24 02:08:00,75.0,73.0,30.14,SW,214,0.0,3.0,92,0.00,,,0.00,,2013-06-24 06:08:00,
2013-06-24 02:14:00,75.0,73.0,30.14,SW,214,0.0,3.0,92,0.00,,,0.00,,2013-06-24 06:14:00,
2013-06-24 02:24:00,75.0,73.0,30.14,SW,226,0.0,2.0,93,0.00,,,0.00,,2013-06-24 06:24:00,
2013-06-24 02:37:00,75.0,73.0,30.14,SSW,205,0.0,2.0,93,0.00,,,0.00,,2013-06-24 06:37:00,
2013-06-24 02:45:00,75.0,73.0,30.14,SSW,205,0.0,2.0,93,0.00,,,0.00,,2013-06-24 06:45:00,
2013-06-24 02:57:00,75.0,73.0,30.14,SW,219,0.0,0.0,93,0.00,,,0.00,,2013-06-24 06:57:00,
2013-06-24 03:05:00,74.0,72.0,30.14,SW,219,0.0,0.0,94,0.00,,,0.00,,2013-06-24 07:05:00,
2013-06-24 03:14:00,74.0,72.0,30.14,SW,219,0.0,0.0,94,0.00,,,0.00,,2013-06-24 07:14:00,
2013-06-24 03:37:00,73.0,71.0,30.14,SW,219,0.0,0.0,95,0.00,,,0.00,,2013-06-24 07:37:00,
2013-06-24 04:04:00,73.0,72.0,30.15,SW,219,0.0,0.0,96,0.00,,,0.00,,2013-06-24 08:04:00,
2013-06-24 04:14:00,73.0,72.0,30.15,SW,219,0.0,0.0,96,0.00,,,0.00,,2013-06-24 08:14:00,
2013-06-24 04:26:00,73.0,72.0,30.14,SW,219,0.0,0.0,97,0.00,,,0.00,,2013-06-24 08:26:00,
2013-06-24 04:35:00,73.0,72.0,30.14,SW,219,0.0,0.0,97,0.00,,,0.00,,2013-06-24 08:35:00,
2013-06-24 04:46:00,73.0,72.0,30.14,SW,219,0.0,0.0,97,0.00,,,0.00,,2013-06-24 08:46:00,
2013-06-24 04:52:00,73.0,72.0,30.14,SW,219,0.0,0.0,97,0.00,,,0.00,,2013-06-24 08:52:00,
2013-06-24 05:06:00,73.0,72.0,30.14,SW,219,0.0,0.0,97,0.00,,,0.00,,2013-06-24 09:06:00,
2013-06-24 05:15:00,73.0,72.0,30.14,SW,219,0.0,0.0,97,0.00,,,0.00,,2013-06-24 09:15:00,
2013-06-24 05:26:00,72.0,71.0,30.15,SW,219,0.0,0.0,98,0.00,,,0.00,,2013-06-24 09:26:00,
2013-06-24 05:37:00,72.0,71.0,30.15,SW,219,0.0,0.0,98,0.00,,,0.00,,2013-06-24 09:37:00,
2013-06-24 05:49:00,72.0,71.0,30.14,SW,219,0.0,0.0,98,0.00,,,0.00,,2013-06-24 09:49:00,
2013-06-24 06:00:00,72.0,71.0,30.15,SW,219,0.0,0.0,98,0.00,,,0.00,,2013-06-24 10:00:00,
2013-06-24 06:15:00,72.0,71.0,30.15,SW,219,0.0,0.0,98,0.00,,,0.00,,2013-06-24 10:15:00,
2013-06-24 06:24:00,72.0,71.0,30.16,SW,219,0.0,0.0,98,0.00,,,0.00,,2013-06-24 10:24:00,
2013-06-24 06:37:00,72.0,71.0,30.16,SW,219,0.0,0.0,98,0.00,,,0.00,,2013-06-24 10:37:00,
2013-06-24 06:54:00,72.0,71.0,30.16,SW,219,0.0,0.0,98,0.00,,,0.00,,2013-06-24 10:54:00,
2013-06-24 07:03:00,72.0,71.0,30.16,SW,219,0.0,0.0,98,0.00,,,0.00,,2013-06-24 11:03:00,
2013-06-24 07:15:00,72.0,72.0,30.16,SW,219,0.0,0.0,99,0.00,,,0.00,,2013-06-24 11:15:00,
2013-06-24 07:29:00,72.0,72.0,30.16,SW,219,0.0,0.0,99,0.00,,,0.00,,2013-06-24 11:29:00,
2013-06-24 07:34:00,72.0,72.0,30.16,SW,219,0.0,0.0,99,0.00,,,0.00,,2013-06-24 11:34:00,
2013-06-24 07:47:00,74.0,74.0,30.17,SW,219,0.0,0.0,99,0.00,,,0.00,,2013-06-24 11:47:00,
2013-06-24 07:56:00,75.0,75.0,30.18,SW,219,0.0,0.0,99,0.00,,,0.00,,2013-06-24 11:56:00,
2013-06-24 08:05:00,75.0,75.0,30.18,SW,219,0.0,0.0,99,0.00,,,0.00,,2013-06-24 12:05:00,
2013-06-24 08:16:00,77.0,76.0,30.18,ESE,110,0.0,0.0,97,0.00,,,0.00,,2013-06-24 12:16:00,
2013-06-24 08:24:00,79.0,76.0,30.18,ESE,123,0.0,2.0,92,0.00,,,0.00,,2013-06-24 12:24:00,
2013-06-24 08:36:00,79.0,76.0,30.18,ESE,123,0.0,2.0,92,0.00,,,0.00,,2013-06-24 12:36:00,
2013-06-24 08:48:00,80.0,76.0,30.18,SE,124,1.0,3.0,88,0.00,,,0.00,,2013-06-24 12:48:00,
2013-06-24 09:06:00,80.0,75.0,30.19,SW,225,1.0,6.0,85,0.00,,,0.00,,2013-06-24 13:06:00,
2013-06-24 09:24:00,81.0,75.0,30.19,SW,235,2.0,7.0,82,0.00,,,0.00,,2013-06-24 13:24:00,
2013-06-24 09:36:00,82.0,75.0,30.19,SSE,158,2.0,7.0,80,0.00,,,0.00,,2013-06-24 13:36:00,
2013-06-24 10:03:00,83.0,75.0,30.19,WNW,294,2.0,6.0,76,0.00,,,0.00,,2013-06-24 14:03:00,
2013-06-24 10:37:00,84.0,74.0,30.19,SW,224,3.0,6.0,72,0.00,,,0.00,,2013-06-24 14:37:00,
2013-06-24 10:45:00,86.0,75.0,30.19,ESE,122,1.0,5.0,71,0.00,,,0.00,,2013-06-24 14:45:00,
2013-06-24 10:56:00,86.0,75.0,30.19,ESE,122,1.0,5.0,71,0.00,,,0.00,,2013-06-24 14:56:00,
2013-06-24 11:05:00,87.0,75.0,30.20,SW,226,2.0,6.0,67,0.00,,,0.00,,2013-06-24 15:05:00,
2013-06-24 11:36:00,87.0,73.0,30.19,SW,224,2.0,9.0,64,0.00,,,0.00,,2013-06-24 15:36:00,
2013-06-24 11:57:00,88.0,74.0,30.19,SW,222,1.0,6.0,64,0.00,,,0.00,,2013-06-24 15:57:00,
2013-06-24 12:04:00,87.0,72.0,30.19,SSW,206,2.0,6.0,62,0.00,,,0.00,,2013-06-24 16:04:00,
2013-06-24 12:15:00,88.0,73.0,30.19,SW,221,1.0,5.0,62,0.00,,,0.00,,2013-06-24 16:15:00,
2013-06-24 12:24:00,88.0,73.0,30.19,SW,221,1.0,5.0,62,0.00,,,0.00,,2013-06-24 16:24:00,
2013-06-24 12:36:00,88.0,73.0,30.19,SW,221,1.0,5.0,62,0.00,,,0.00,,2013-06-24 16:36:00,
2013-06-24 12:44:00,88.0,73.0,30.19,SW,221,1.0,5.0,62,0.00,,,0.00,,2013-06-24 16:44:00,
2013-06-24 13:36:00,90.0,72.0,30.18,South,169,1.0,6.0,55,0.00,,,0.00,,2013-06-24 17:36:00,
2013-06-24 13:47:00,91.0,71.0,30.18,South,184,1.0,7.0,53,0.00,,,0.00,,2013-06-24 17:47:00,
2013-06-24 14:36:00,93.0,70.0,30.15,ESE,116,2.0,5.0,48,0.00,,,0.00,,2013-06-24 18:36:00,
2013-06-24 14:46:00,92.0,68.0,30.14,NNE,15,1.0,7.0,46,0.00,,,0.00,,2013-06-24 18:46:00,
2013-06-24 15:13:00,92.0,73.0,30.14,West,280,2.0,5.0,54,0.00,,,0.00,,2013-06-24 19:13:00,
2013-06-24 15:37:00,91.0,75.0,30.14,ENE,76,3.0,8.0,60,0.00,,,0.00,,2013-06-24 19:37:00,
2013-06-24 16:24:00,89.0,76.0,30.13,WSW,257,1.0,8.0,65,0.00,,,0.00,,2013-06-24 20:24:00,
2013-06-24 16:34:00,90.0,75.0,30.11,SSE,150,3.0,7.0,61,0.00,,,0.00,,2013-06-24 20:34:00,
2013-06-24 16:45:00,91.0,76.0,30.11,WNW,288,2.0,8.0,61,0.00,,,0.00,,2013-06-24 20:45:00,
2013-06-24 17:04:00,91.0,76.0,30.11,SW,228,3.0,7.0,61,0.00,,,0.00,,2013-06-24 21:04:00,
2013-06-24 17:25:00,88.0,75.0,30.11,SSW,205,2.0,7.0,66,0.00,,,0.00,,2013-06-24 21:25:00,
2013-06-24 17:37:00,88.0,75.0,30.10,SW,215,3.0,9.0,65,0.00,,,0.00,,2013-06-24 21:37:00,
2013-06-24 17:46:00,89.0,73.0,30.10,West,269,2.0,8.0,60,0.00,,,0.00,,2013-06-24 21:46:00,
2013-06-24 17:53:00,89.0,73.0,30.10,West,269,2.0,8.0,60,0.00,,,0.00,,2013-06-24 21:53:00,
2013-06-24 18:05:00,88.0,74.0,30.10,SW,225,2.0,7.0,64,0.00,,,0.00,,2013-06-24 22:05:00,
2013-06-24 18:15:00,88.0,74.0,30.09,SW,235,2.0,9.0,64,0.00,,,0.00,,2013-06-24 22:15:00,
2013-06-24 18:23:00,88.0,74.0,30.09,SW,235,2.0,9.0,64,0.00,,,0.00,,2013-06-24 22:23:00,
2013-06-24 18:36:00,88.0,74.0,30.09,SE,137,3.0,8.0,63,0.00,,,0.00,,2013-06-24 22:36:00,
2013-06-24 18:48:00,88.0,75.0,30.09,NE,54,3.0,8.0,65,0.00,,,0.00,,2013-06-24 22:48:00,
2013-06-24 19:14:00,87.0,75.0,30.09,NW,323,3.0,7.0,67,0.00,,,0.00,,2013-06-24 23:14:00,
2013-06-24 19:27:00,87.0,75.0,30.09,SE,136,2.0,7.0,68,0.00,,,0.00,,2013-06-24 23:27:00,
2013-06-24 19:35:00,87.0,75.0,30.09,SE,136,2.0,7.0,68,0.00,,,0.00,,2013-06-24 23:35:00,
2013-06-24 19:45:00,86.0,75.0,30.10,SSE,158,4.0,8.0,71,0.00,,,0.00,,2013-06-24 23:45:00,
2013-06-24 19:53:00,85.0,75.0,30.11,WSW,250,1.0,5.0,73,0.00,,,0.00,,2013-06-24 23:53:00,
2013-06-24 20:06:00,85.0,75.0,30.11,WSW,250,1.0,5.0,73,0.00,,,0.00,,2013-06-25 00:06:00,
2013-06-24 20:13:00,83.0,74.0,30.12,SSE,154,1.0,5.0,75,0.00,,,0.00,,2013-06-25 00:13:00,
2013-06-24 20:24:00,82.0,74.0,30.12,West,264,1.0,6.0,77,0.00,,,0.00,,2013-06-25 00:24:00,
2013-06-24 20:34:00,82.0,74.0,30.12,West,264,1.0,6.0,77,0.00,,,0.00,,2013-06-25 00:34:00,
2013-06-24 20:37:00,81.0,74.0,30.13,ENE,65,0.0,4.0,80,0.00,,,0.00,,2013-06-25 00:37:00,
2013-06-24 20:47:00,81.0,73.0,30.13,ESE,110,0.0,4.0,78,0.00,,,0.00,,2013-06-25 00:47:00,
2013-06-24 20:54:00,81.0,74.0,30.13,ENE,65,0.0,4.0,80,0.00,,,0.00,,2013-06-25 00:54:00,
2013-06-24 21:04:00,81.0,74.0,30.13,ENE,65,0.0,4.0,80,0.00,,,0.00,,2013-06-25 01:04:00,
2013-06-24 21:17:00,81.0,74.0,30.13,ENE,65,0.0,4.0,80,0.00,,,0.00,,2013-06-25 01:17:00,
2013-06-24 21:24:00,81.0,74.0,30.13,ENE,65,0.0,4.0,80,0.00,,,0.00,,2013-06-25 01:24:00,
2013-06-24 22:38:00,79.0,74.0,30.16,ESE,120,0.0,1.0,85,0.00,,,0.00,,2013-06-25 02:38:00,
2013-06-24 23:44:00,77.0,74.0,30.16,WSW,255,0.0,1.0,89,0.00,,,0.00,,2013-06-25 03:44:00,